Lapse_Rate
6.1 6.0 5.9 6.6 6.4 6.5 6.6 6.5 6.6 6.7 6.5 6.4 6.6 6.5 6.2 6.0 5.8 5.5 5.9 6.1 6.4 6.9 7.0 7.2 6.9 6.7 6.6 6.5 6.6 6.7 6.9 6.9 7.0 6.9 6.8 6.6 6.8 6.9 7.0 6.8 6.8 6.8 6.7 6.5 5.9 5.9 5.9 6.3 6.1 5.6 5.4 5.6 5.7 6.0
5.9 5.9 6.1 6.5 6.4 6.4 6.4 6.5 6.6 6.6 6.5 6.5 6.6 6.4 6.2 6.1 5.9 5.6 6.2 6.1 6.3 6.8 7.2 7.1 6.8 6.6 6.5 6.4 6.4 6.3 6.4 6.3 6.2 6.4 6.6 6.6 6.6 6.8 6.8 6.9 6.8 6.7 6.6 6.5 6.2 6.1 6.1 6.2 5.9 5.7 5.5 5.2 5.4 5.6
5.9 5.6 6.1 6.4 6.2 6.2 6.2 6.4 6.5 6.6 6.5 6.5 6.5 6.4 6.2 6.2 6.0 6.0 6.1 6.2 6.3 6.6 7.0 7.1 6.9 7.0 6.8 6.6 6.6 6.5 6.1 6.2 6.2 6.3 6.4 6.6 6.6 6.7 6.6 6.7 6.4 6.5 6.7 6.7 6.4 6.1 6.2 6.4 6.2 6.3 5.9 6.1 6.3 6.2
5.4 5.5 6.0 6.1 6.2 6.2 6.2 6.4 6.7 6.7 6.5 6.5 6.5 6.5 6.5 6.4 6.3 6.2 6.2 6.3 6.5 6.6 6.9 7.0 6.8 6.8 6.8 6.9 6.7 6.5 6.2 6.2 6.2 6.3 6.4 6.4 6.6 6.6 6.4 6.5 6.6 6.6 6.8 6.8 6.8 6.4 6.3 6.1 6.2 6.4 6.4 6.6 6.6 6.7
5.3 5.4 6.0 6.1 6.2 6.3 6.3 6.4 6.7 6.8 6.7 6.6 6.5 6.6 6.6 6.4 6.4 6.3 6.4 6.7 6.8 6.6 6.8 6.7 6.8 7.0 7.1 7.0 6.7 6.4 6.3 6.3 6.2 6.3 6.4 6.6 6.5 6.6 6.6 6.5 6.9 6.9 7.0 6.9 6.5 6.2 6.1 6.3 6.3 6.3 6.2 6.5 6.7 6.7
5.3 5.3 6.0 6.3 6.3 6.3 6.3 6.6 6.9 6.9 6.8 6.7 6.5 6.6 6.6 6.6 6.6 6.5 6.8 7.3 7.1 6.8 6.8 6.7 6.6 6.9 6.9 6.8 6.6 6.4 6.3 6.2 6.4 6.7 7.0 7.0 6.7 6.6 6.6 7.1 7.2 7.2 7.2 7.0 6.7 6.5 6.5 6.4 6.5 6.5 6.6 6.6 6.7 6.6
5.7 5.5 5.3 6.0 6.4 6.4 6.6 6.8 7.0 7.0 6.8 6.8 6.8 6.9 6.9 6.8 7.0 7.0 7.0 7.3 7.2 7.0 6.6 6.3 6.4 6.9 6.7 6.7 6.5 6.5 6.5 6.5 6.7 7.4 7.2 7.2 6.9 6.9 6.8 6.8 7.3 7.2 7.1 7.0 6.9 6.7 6.7 6.7 6.8 6.7 6.7 6.6 6.6 6.5
5.5 5.4 5.5 6.2 6.4 6.5 6.6 6.9 7.1 7.0 6.9 6.9 6.9 7.1 7.4 7.2 7.1 7.1 7.2 7.1 7.0 6.9 6.4 6.3 6.5 6.8 6.8 6.9 6.6 6.7 6.8 6.7 7.4 7.4 7.3 7.2 6.9 6.7 7.1 7.6 7.5 7.2 7.1 7.0 7.0 6.9 6.9 6.8 6.7 6.7 6.7 6.6 6.5 6.5
5.2 5.4 5.6 6.1 6.4 6.6 6.8 7.1 7.1 7.0 6.9 6.9 7.2 7.4 7.3 7.3 7.3 7.1 7.1 6.9 6.9 6.8 6.4 6.4 6.8 7.1 7.2 7.1 6.8 6.9 7.0 7.0 7.1 7.3 7.2 6.9 6.9 7.1 7.5 7.5 7.5 7.3 7.2 7.1 7.0 7.0 6.9 6.9 6.7 6.6 6.5 6.6 6.6 6.5
5.3 5.3 5.9 6.2 6.5 6.9 7.1 7.2 7.1 7.0 7.0 7.3 7.6 7.5 7.2 7.4 7.2 7.1 7.1 6.8 6.7 6.6 6.5 6.9 7.1 7.2 7.4 7.3 7.2 7.0 7.0 6.8 7.0 7.4 7.3 7.0 7.2 7.5 7.4 7.5 7.4 7.1 7.0 6.8 6.8 6.8 6.7 6.8 6.7 6.6 6.6 6.6 6.5 6.5
5.3 5.7 6.2 6.6 6.9 7.1 7.2 7.2 7.1 7.1 7.2 7.5 7.8 7.7 7.6 7.3 7.1 7.1 6.9 6.7 6.7 6.8 6.8 7.2 7.2 7.3 7.3 7.3 7.3 7.1 7.1 7.0 7.1 7.3 7.0 6.8 7.4 7.8 7.7 7.6 7.4 7.0 6.7 6.6 6.6 6.6 6.6 6.5 6.6 6.7 6.7 6.5 6.3 6.3
5.8 6.3 6.7 7.0 7.1 7.1 7.2 7.1 7.1 7.2 7.3 7.6 7.7 7.7 7.8 7.5 7.2 7.1 6.7 6.6 6.9 7.0 7.3 7.4 7.5 7.3 7.3 7.4 7.3 7.4 7.4 7.2 7.1 7.1 6.9 7.1 8.0 7.7 7.7 7.5 7.1 6.6 6.4 6.5 6.4 6.4 6.5 6.5 6.5 6.4 6.3 6.3 6.1 5.9
6.8 7.0 7.0 7.0 7.1 7.2 7.2 7.1 7.2 7.3 7.4 7.5 7.7 7.6 7.6 7.5 7.3 6.8 6.7 6.8 7.5 7.7 7.6 7.6 7.6 7.4 7.2 7.3 7.3 7.4 7.4 7.2 7.0 7.0 7.2 7.5 7.7 7.7 7.6 7.4 7.1 6.8 6.5 6.3 6.2 6.2 6.4 6.4 6.3 6.1 6.0 5.9 5.6 5.5
7.0 7.1 7.2 7.2 7.2 7.3 7.2 7.3 7.2 7.2 7.3 7.4 7.6 7.7 7.8 7.6 7.3 7.3 7.6 7.9 7.9 7.7 7.7 7.6 7.5 7.2 7.4 7.4 7.4 7.5 7.4 7.0 6.9 6.8 7.4 7.6 7.6 7.5 7.4 7.3 7.1 6.9 6.6 6.4 6.3 6.1 5.9 5.8 5.7 5.6 5.5 5.3 5.3 5.3
7.1 7.2 7.3 7.3 7.3 7.4 7.5 7.4 7.3 7.2 7.3 7.5 7.8 7.9 7.6 7.7 7.7 7.8 8.0 8.1 7.7 7.6 7.6 7.7 7.2 7.4 7.4 7.6 7.5 7.3 7.3 7.2 7.4 7.6 7.6 7.6 7.5 7.3 7.1 6.9 6.6 6.3 6.0 5.7 5.6 5.5 5.4 5.5 5.5 5.4 5.2 5.0 4.9 4.7
7.5 7.4 7.5 7.3 7.2 7.4 7.4 7.3 7.3 7.3 7.3 7.7 7.8 8.0 8.0 8.1 8.2 7.9 8.4 8.3 7.8 7.6 7.4 7.2 7.1 7.1 7.4 7.4 7.4 7.4 7.3 7.7 7.8 7.8 7.6 7.4 7.2 7.0 6.7 6.4 6.1 5.9 5.7 5.8 5.8 5.6 5.4 5.2 4.9 4.7 4.5 4.3 4.1 4.0
7.4 7.6 7.4 7.4 7.5 7.6 7.4 7.1 7.3 7.4 7.6 7.5 8.0 8.3 8.2 8.5 8.7 8.7 8.6 8.5 8.0 7.4 7.4 7.3 7.4 7.5 7.4 7.4 7.3 7.4 7.6 7.8 7.7 7.5 7.3 7.1 6.9 6.6 6.3 6.0 5.8 5.7 5.7 5.5 5.3 5.1 4.9 4.8 4.7 4.6 4.4 4.3 4.2 4.1
7.6 7.4 7.4 7.6 7.5 7.5 7.6 7.5 7.5 7.4 7.6 7.6 8.2 8.2 8.5 8.8 8.7 8.7 8.6 8.5 7.9 7.5 7.1 7.1 7.3 7.4 7.3 7.2 7.5 7.6 7.6 7.4 7.3 7.1 6.8 6.6 6.3 6.0 5.7 5.7 5.6 5.5 5.4 5.2 4.9 4.7 4.6 4.4 4.3 4.2 4.1 4.0 4.0 3.9
7.9 7.5 7.4 7.5 7.6 7.7 7.7 7.7 7.8 8.0 8.0 8.1 8.3 8.2 8.3 8.4 8.4 8.4 8.4 8.2 7.7 7.0 6.8 6.7 6.9 6.9 7.1 7.3 7.3 7.3 7.3 7.1 6.8 6.7 6.4 6.2 5.9 5.9 5.9 5.7 5.5 5.3 5.2 5.0 4.8 4.7 4.6 4.5 4.5 4.4 4.3 4.3 4.2 4.2
7.2 7.3 7.5 7.4 7.5 7.4 7.7 7.6 7.7 8.2 8.0 8.1 8.0 8.0 8.0 8.0 8.1 8.1 7.7 7.3 7.0 6.9 6.5 6.3 6.6 6.7 6.9 7.0 7.1 7.1 6.9 6.6 6.4 6.3 6.2 6.0 5.9 5.7 5.6 5.4 5.3 5.2 5.1 4.9 4.8 4.8 4.8 4.7 4.5 4.5 4.5 4.4 4.5 4.7
7.5 7.5 7.5 7.5 7.5 7.7 7.8 7.7 7.9 8.0 7.9 7.9 7.7 7.5 7.4 7.1 7.2 7.0 7.1 6.9 6.8 6.6 6.5 6.3 6.3 6.6 6.8 6.8 6.8 6.6 6.3 6.3 6.3 6.2 5.9 5.8 5.7 5.7 5.7 5.5 5.2 5.0 5.0 4.9 4.8 4.7 4.7 4.7 4.7 4.6 4.7 4.9 5.2 5.4
7.4 7.4 7.5 7.5 7.5 7.6 7.7 7.7 7.8 7.8 7.7 7.8 7.5 7.4 7.1 6.8 6.6 6.5 6.6 6.4 6.4 6.2 6.0 6.2 6.4 6.6 6.6 6.5 6.3 6.3 6.4 6.4 6.1 5.9 5.8 5.9 5.7 5.6 5.4 5.2 5.0 5.0 4.9 4.8 4.8 4.9 4.9 5.0 5.1 5.3 5.5 5.7 5.8 5.7
7.6 7.5 7.6 7.7 7.6 7.3 6.8 7.0 7.0 7.1 6.9 7.0 7.0 6.6 6.5 6.5 6.3 6.2 6.2 6.0 6.0 6.2 6.3 6.4 6.6 6.5 6.3 6.2 6.4 6.3 6.2 6.0 6.1 6.1 5.9 5.6 5.4 5.3 5.2 5.0 5.0 5.0 5.0 5.0 5.0 5.1 5.2 5.4 5.7 6.0 6.1 6.0 6.0 6.0
7.5 7.6 7.6 7.5 7.2 6.9 6.5 6.5 6.8 6.8 6.6 6.3 6.1 6.2 6.1 6.0 6.0 5.8 6.0 6.3 6.4 6.4 6.5 6.4 6.2 6.1 6.3 6.4 6.2 6.1 6.2 6.3 6.0 5.8 5.7 5.5 5.4 5.3 5.1 5.1 5.0 5.0 5.0 5.1 5.1 5.1 5.4 5.8 6.0 6.2 6.2 6.2 6.2 6.1
7.4 7.5 7.5 7.6 7.3 6.9 6.7 6.8 6.8 6.9 6.6 6.4 6.2 6.3 6.1 6.0 6.2 6.2 6.3 6.6 6.6 6.5 6.3 6.3 6.4 6.5 6.4 6.2 6.2 6.4 6.2 6.0 6.0 5.9 5.7 5.5 5.3 5.1 5.0 4.9 5.0 5.1 5.1 5.2 5.3 5.7 6.0 6.1 6.2 6.3 6.3 6.3 6.2 6.0
7.5 7.6 7.6 7.6 7.6 7.1 6.9 6.7 6.7 6.9 6.6 6.3 6.2 6.2 6.2 6.2 6.3 6.5 6.6 6.7 6.6 6.4 6.4 6.3 6.3 6.3 6.3 6.3 6.4 6.2 6.1 6.0 6.0 5.8 5.5 5.3 5.1 4.9 5.0 5.0 5.2 5.1 5.2 5.3 5.8 6.1 6.2 6.3 6.3 6.3 6.3 6.2 6.1 6.0
7.5 7.6 7.6 7.6 7.5 7.3 7.0 6.7 6.7 6.5 6.3 6.4 6.6 6.5 6.5 6.7 6.7 6.8 6.9 7.0 7.0 6.8 6.7 6.4 6.4 6.4 6.4 6.3 6.1 6.1 6.1 6.0 5.8 5.5 5.3 5.1 5.0 5.0 5.0 5.1 5.1 5.2 5.2 5.6 6.0 6.1 6.2 6.3 6.3 6.2 6.1 6.0 5.9 5.8
7.3 7.4 7.4 7.2 7.0 7.0 7.0 6.9 6.6 6.3 6.5 6.6 6.6 6.6 6.8 7.0 7.3 7.3 7.3 7.2 7.0 6.6 6.4 6.3 6.4 6.3 6.2 6.1 6.1 6.0 5.9 5.7 5.5 5.3 5.2 5.1 5.0 5.1 5.1 5.0 5.1 5.2 5.5 5.9 6.0 6.1 6.1 6.1 6.1 6.0 5.9 5.8 5.8 5.7
7.0 7.1 7.0 6.8 6.5 6.5 6.5 6.5 6.6 6.5 6.6 6.7 6.7 6.8 7.1 7.3 7.3 7.3 7.2 6.9 6.8 6.5 6.3 6.3 6.3 6.2 6.1 6.1 6.0 5.9 5.7 5.6 5.4 5.3 5.2 5.1 5.1 5.1 4.9 5.0 5.1 5.2 5.6 5.9 5.9 5.9 5.9 6.0 6.1 6.0 6.0 5.9 5.8 5.7
6.6 6.5 6.5 6.3 6.2 6.1 6.3 6.3 6.4 6.4 6.6 6.7 6.8 6.9 7.1 7.4 7.3 7.0 6.7 6.7 6.6 6.6 6.4 6.2 6.1 6.1 6.0 5.9 5.9 5.8 5.7 5.5 5.3 5.3 5.1 5.1 5.0 4.9 4.8 4.9 4.9 5.3 5.6 5.7 5.8 5.8 6.0 6.1 6.1 6.1 6.1 6.0 5.9 5.9
6.0 6.0 6.0 5.9 5.8 5.9 6.0 6.1 6.3 6.4 6.4 6.4 6.4 6.9 7.2 7.5 7.2 6.9 6.7 6.7 6.5 6.3 6.2 6.2 6.0 6.0 5.8 5.8 5.8 5.8 5.5 5.4 5.3 5.2 5.1 5.0 4.9 4.7 4.8 4.8 5.0 5.4 5.6 5.5 5.5 5.6 5.6 5.7 5.9 6.0 6.0 6.0 5.9 5.9
5.5 5.6 5.5 5.7 5.6 5.6 5.8 6.0 6.2 6.3 6.5 6.6 6.7 7.0 7.2 7.0 6.9 6.7 6.6 6.5 6.3 6.3 6.1 6.1 6.0 5.8 5.7 5.7 5.8 5.6 5.5 5.4 5.3 5.2 5.0 4.9 4.7 4.7 4.8 4.9 5.2 5.4 5.4 5.4 5.5 5.6 5.6 5.7 5.7 5.7 5.7 5.7 5.7 5.8
4.9 4.8 5.0 5.1 5.2 5.3 5.5 5.7 6.1 6.4 6.5 6.5 6.6 6.7 6.7 6.4 6.5 6.4 6.4 6.4 6.3 6.2 6.1 6.0 5.9 5.7 5.7 5.7 5.7 5.5 5.3 5.3 5.2 5.0 4.8 4.7 4.6 4.7 4.8 5.1 5.3 5.4 5.5 5.6 5.6 5.6 5.6 5.6 5.6 5.7 5.8 5.9 5.8 5.8
Wind_Speed
13 12 21 17 13 14 12 14 15 16 16 15 11 10 11 9 9 2 1 15 3 3 4 6 4 4 2 1 2 4 3 3 4 5 4 3 3 3 2 2 3 2 1 1 2 3 3 13 5 4 2 10 8 9
16 18 19 17 16 16 14 16 15 18 16 14 12 12 13 12 10 6 2 10 7 2 3 2 4 7 7 5 2 2 1 2 3 2 3 2 1 3 4 2 4 2 4 2 3 3 7 8 8 11 12 9 10 10
16 22 20 18 17 15 16 16 17 17 15 13 13 14 14 14 11 9 1 3 2 1 4 4 8 8 7 10 4 1 1 2 1 0 1 2 2 3 2 2 4 3 5 2 2 5 7 9 9 11 12 12 12 11
18 20 20 17 18 16 16 17 18 14 14 14 15 15 15 13 12 12 4 4 2 1 2 5 1 5 3 8 8 6 2 1 2 1 1 2 2 1 1 3 1 2 6 4 1 4 3 12 10 9 11 10 11 12
20 21 19 19 19 18 18 18 18 17 15 15 15 16 16 16 15 11 5 6 7 2 2 3 4 3 1 7 9 7 5 3 1 2 2 2 1 1 1 0 1 3 3 2 3 5 3 4 8 9 10 11 11 9
21 23 21 19 18 17 17 18 16 16 15 16 15 18 18 18 14 2 1 4 15 5 2 2 2 2 3 5 7 6 4 2 1 2 2 1 3 1 1 1 2 3 4 6 3 3 8 8 8 8 9 9 10 11
18 22 19 18 18 17 17 14 15 15 15 14 19 25 18 21 11 3 3 2 17 4 2 2 3 0 4 3 2 2 3 2 3 2 2 2 2 2 2 2 5 4 6 7 8 5 8 9 5 6 7 8 10 10
17 19 21 21 19 18 17 16 14 15 14 15 17 9 13 17 9 2 0 20 13 3 2 1 2 1 5 2 2 2 3 1 2 1 1 2 1 0 2 4 4 5 2 8 8 9 8 7 7 8 6 6 8 9
16 22 21 19 20 20 17 15 15 15 13 13 9 7 5 2 3 2 17 15 3 2 3 2 2 2 3 1 2 2 1 2 1 2 3 3 1 4 1 5 5 6 3 4 2 7 7 8 7 7 7 7 7 7
16 19 18 17 18 18 17 16 15 13 11 9 1 2 2 2 31 16 2 2 1 1 2 3 1 2 2 1 2 2 0 2 3 4 3 3 1 5 6 7 6 5 6 7 2 2 5 6 6 7 8 7 7 7
19 20 20 21 19 18 17 16 14 12 10 2 2 2 3 18 2 1 3 3 3 3 3 3 4 3 2 2 3 2 2 2 2 3 4 3 2 3 6 7 6 6 6 7 7 6 7 6 5 6 7 7 7 7
19 20 20 21 21 21 19 19 16 6 3 6 3 4 3 2 2 4 3 3 4 4 3 4 4 2 2 1 2 2 3 3 4 3 3 2 2 7 7 6 6 6 6 8 7 7 7 7 6 7 7 7 7 7
19 20 21 21 22 23 21 18 18 11 10 4 2 4 3 2 3 6 7 3 4 4 4 3 3 3 2 1 1 2 3 3 1 1 2 1 6 6 6 5 5 5 6 8 8 8 8 8 8 8 8 7 7 7
20 21 20 19 20 21 21 21 19 13 1 2 3 6 4 4 4 4 4 4 2 3 5 5 4 2 1 2 1 4 1 1 1 2 3 3 7 6 5 4 5 4 6 7 6 7 7 8 8 7 6 5 5 6
13 19 24 24 29 30 30 26 21 3 1 2 2 4 5 2 0 3 2 4 1 4 3 3 3 2 1 1 1 2 2 3 3 2 2 5 7 6 6 5 5 5 4 5 4 6 7 7 7 7 4 5 6 5
23 5 8 22 25 31 33 27 5 2 2 2 2 3 1 3 4 3 5 4 1 2 2 2 3 2 2 2 3 5 4 4 1 2 3 6 5 4 4 5 5 4 5 5 4 4 4 4 4 5 4 4 3 4
8 4 35 37 34 34 28 5 3 3 3 2 2 2 1 2 2 2 2 2 1 2 2 2 4 4 3 1 2 2 1 1 3 4 3 3 5 6 5 5 5 5 5 4 3 3 3 3 4 3 3 2 2 3
11 15 32 30 21 12 3 3 3 3 4 2 3 1 1 0 1 2 2 1 1 2 2 2 3 2 3 3 2 3 2 2 2 3 3 3 4 4 4 6 4 4 4 3 3 4 4 4 3 3 4 4 4 4
11 9 18 13 7 5 3 3 2 4 2 2 3 2 2 2 3 2 1 3 3 2 4 2 4 1 2 1 2 2 5 3 5 3 3 3 4 5 5 4 4 3 4 5 4 3 3 4 2 2 3 4 4 4
20 14 10 11 8 3 4 2 2 4 3 2 2 2 3 2 1 2 5 4 3 2 4 3 1 1 1 1 2 5 4 6 7 6 4 3 3 4 4 4 3 4 3 3 2 3 3 2 2 2 2 2 2 2
7 4 7 4 3 3 3 2 3 2 4 3 3 2 3 2 3 3 3 3 3 2 2 1 2 2 2 3 5 6 6 6 4 3 4 4 2 3 3 2 3 3 2 3 3 2 0 1 1 1 2 2 1 1
2 5 3 4 3 3 3 3 4 3 3 3 2 2 3 2 2 2 1 4 2 1 1 2 5 5 6 6 4 5 6 6 6 5 6 7 4 3 2 2 3 2 2 1 1 2 2 1 1 1 0 1 1 1
4 4 3 3 4 4 1 0 3 2 3 3 2 3 2 2 1 1 3 2 1 0 2 4 6 7 9 8 9 7 6 8 6 5 5 5 4 3 3 3 2 2 2 1 1 2 1 0 1 1 0 0 1 1
7 4 4 3 4 2 1 2 2 3 3 2 2 3 2 2 1 2 3 0 0 1 3 7 6 7 6 6 4 3 4 5 6 5 3 5 4 3 3 3 3 2 2 2 1 1 1 0 1 1 1 1 1 2
5 6 4 4 3 4 4 3 2 3 2 2 3 1 2 2 2 1 3 3 2 4 4 4 5 5 5 4 3 4 3 4 5 5 2 2 4 3 2 2 2 2 1 0 0 1 1 1 1 1 1 1 3 3
6 4 4 1 2 4 3 3 2 4 3 2 2 2 2 3 3 2 2 4 3 3 3 5 5 4 3 2 4 3 2 3 4 4 2 1 2 1 2 2 2 1 2 2 1 1 2 1 2 2 3 2 2 2
4 3 3 3 2 3 3 3 3 4 3 3 3 2 3 3 2 2 1 1 2 2 3 3 4 4 5 4 4 3 3 3 4 5 4 4 3 2 1 1 2 1 1 2 2 1 1 2 1 1 2 2 2 2
3 4 4 3 4 4 4 3 3 2 1 1 2 3 4 4 3 0 0 1 3 7 6 5 5 5 5 5 5 6 6 5 6 6 6 5 4 3 3 3 3 4 3 1 1 1 1 1 1 1 2 3 3 1
3 2 3 5 4 4 4 2 1 1 2 1 3 2 2 2 2 1 2 2 3 7 6 6 4 5 6 5 4 4 4 4 3 3 2 0 1 1 1 1 2 2 2 1 2 2 3 2 2 2 3 3 3 3
1 2 4 3 4 3 2 0 1 1 2 1 2 3 2 2 3 3 3 2 3 4 3 5 4 4 5 5 4 3 2 1 0 2 2 2 2 1 2 1 2 2 2 2 3 3 3 3 2 1 2 3 2 3
2 3 4 3 3 1 2 2 1 2 2 3 3 3 2 2 2 4 4 2 5 6 7 4 3 2 5 4 3 3 1 1 1 2 2 3 4 3 2 1 1 1 2 2 2 2 2 2 2 4 5 6 7 5
3 3 4 4 1 1 2 2 2 3 3 3 3 2 3 3 3 3 3 2 3 4 2 4 5 3 3 2 1 1 1 5 4 3 5 3 3 2 2 2 1 1 1 2 2 2 2 3 4 5 6 8 8 8
3 2 3 3 2 1 2 3 3 2 3 2 2 1 1 2 3 1 1 3 1 3 4 3 4 4 5 5 6 5 5 6 7 7 6 5 5 4 3 2 1 1 1 2 2 3 4 5 5 6 7 7 8 9
Wind_Direction
229 235 208 207 198 208 221 233 243 244 267 229 223 238 243 259 274 238 148 180 164 199 268 201 210 221 285 268 263 312 339 10 2 34 4 1 5 17 312 12 353 31 54 113 162 216 281 358 341 11 355 44 49 57
217 189 199 222 207 204 219 238 233 238 232 215 234 246 242 252 259 241 202 181 179 225 271 291 261 231 204 204 192 18 246 289 350 338 16 320 347 7 5 55 9 66 15 348 347 29 10 28 45 22 41 61 42 72
224 212 205 209 212 208 219 231 241 253 219 226 247 244 241 247 239 218 172 125 100 266 269 243 247 251 216 225 175 200 256 255 338 219 320 324 314 325 19 1 348 49 31 328 335 64 48 30 53 45 47 47 39 54
218 205 210 219 214 213 228 230 234 233 225 239 243 245 245 244 240 222 198 158 142 152 275 275 278 257 241 184 186 200 206 75 113 268 316 301 283 303 351 316 326 355 336 337 341 47 138 43 36 46 52 53 60 51
219 213 212 211 212 218 224 233 243 225 234 243 242 248 253 256 242 226 205 187 167 203 245 280 285 258 228 169 170 161 166 156 47 332 274 236 264 285 235 141 65 6 11 6 46 339 87 49 41 42 52 48 45 55
220 202 211 218 212 217 225 237 224 220 242 249 249 259 256 250 229 137 286 208 191 159 229 281 318 348 65 130 152 163 153 149 222 271 249 281 278 251 334 280 84 59 56 14 62 55 90 95 68 58 64 58 57 66
209 210 211 207 206 219 228 230 220 240 249 251 259 269 248 216 196 175 207 177 162 111 158 270 311 79 105 109 93 115 159 194 196 217 244 251 277 207 219 253 128 61 68 50 37 132 94 52 70 66 79 76 73 73
215 210 202 206 214 224 227 221 232 245 245 263 276 264 172 163 116 140 300 141 118 101 204 246 268 297 174 136 123 163 134 215 190 227 256 242 211 50 248 129 107 41 128 50 39 66 89 100 77 63 85 88 72 64
223 201 200 213 223 219 218 221 233 239 252 259 269 176 112 112 136 150 146 132 118 142 168 211 223 211 139 138 128 150 158 161 252 212 233 174 175 227 97 140 92 44 51 349 28 94 92 86 73 63 62 62 76 69
207 202 209 218 216 215 213 220 227 235 246 257 190 84 141 203 113 105 94 112 197 259 227 239 217 213 196 143 115 123 140 184 199 227 150 216 203 101 86 83 85 59 42 17 145 49 34 82 82 79 74 78 89 93
211 215 219 219 218 215 217 222 217 228 244 118 142 112 112 122 94 102 132 169 157 218 205 231 190 149 216 170 148 201 185 185 237 186 195 198 219 138 118 90 71 63 65 70 81 77 62 67 96 97 89 89 98 99
221 221 220 220 218 214 218 216 218 206 174 171 131 84 117 125 136 134 163 150 200 219 200 193 190 189 151 105 151 176 209 173 246 147 200 234 92 131 122 103 75 62 72 77 74 79 73 76 85 102 103 98 91 95
226 224 226 221 216 217 216 214 211 195 165 147 119 139 161 139 163 166 174 189 191 194 182 172 149 135 147 170 153 163 205 235 91 179 244 101 137 122 118 107 83 60 81 85 78 83 90 88 89 103 101 88 97 92
233 232 228 224 222 223 223 218 207 182 151 123 171 134 180 187 216 185 188 169 208 144 160 137 138 156 130 180 167 193 168 185 177 237 224 137 136 127 116 112 112 86 84 90 88 95 94 92 81 71 76 98 104 102
269 254 245 238 226 220 218 219 208 131 104 114 135 186 195 234 126 158 109 126 128 129 123 105 83 76 70 141 40 130 164 229 228 232 142 146 140 130 120 113 112 100 91 82 72 65 59 62 73 80 85 105 107 108
265 241 205 206 213 209 196 178 132 96 89 101 106 106 168 142 150 142 142 131 15 105 90 71 117 137 218 165 165 211 174 222 150 143 135 130 127 125 127 119 110 102 87 94 94 105 110 109 106 103 95 96 113 122
105 351 110 104 100 109 114 88 90 71 85 69 74 60 62 78 177 111 96 85 332 117 166 130 132 191 110 102 226 204 213 148 146 130 131 135 137 132 121 116 124 130 131 128 122 123 128 136 134 125 125 140 140 128
102 111 109 107 103 82 60 51 92 87 89 85 116 113 100 140 110 49 82 35 80 115 127 154 123 123 177 181 222 174 137 121 103 115 112 114 116 119 134 135 141 135 137 146 146 152 153 167 196 218 192 186 177 172
110 103 105 107 97 101 82 39 41 99 109 126 116 137 105 90 46 47 38 61 75 74 101 56 80 124 185 198 159 151 142 138 134 114 99 108 129 128 122 118 128 140 159 163 169 175 194 225 292 252 220 212 233 215
112 108 103 71 67 57 89 78 65 83 102 92 66 60 71 64 63 30 40 34 45 42 50 48 117 184 173 177 175 142 131 129 126 118 110 95 90 114 132 152 171 167 158 159 161 155 161 141 65 53 40 30 334 262
71 98 75 79 76 70 83 93 67 97 120 96 125 85 79 49 46 38 39 1 72 43 85 92 112 86 81 108 110 120 123 132 133 140 146 141 146 141 144 135 128 138 151 166 174 178 204 122 71 35 33 49 21 339
87 97 85 52 78 73 77 19 111 127 76 112 92 80 82 67 45 38 35 51 60 54 114 126 127 121 105 101 103 108 116 105 97 98 90 115 136 132 119 136 153 153 148 170 179 167 153 133 132 99 54 64 334 26
83 56 54 77 80 65 119 55 86 77 98 114 92 86 71 85 90 115 76 69 94 43 111 103 94 98 102 102 102 97 107 120 111 108 102 98 95 95 104 87 85 126 142 152 162 148 130 15 85 72 22 278 319 303
39 53 59 74 78 121 52 46 84 91 96 100 99 109 128 137 118 57 91 85 113 88 112 122 120 104 88 83 92 100 94 108 105 92 96 121 114 91 96 100 90 76 49 120 129 121 99 88 342 337 356 320 338 305
72 351 66 36 23 80 76 39 33 74 103 137 100 109 174 121 91 87 161 164 149 136 124 115 103 107 120 117 112 98 58 130 133 125 52 121 119 118 103 85 71 48 21 136 58 314 311 299 301 295 278 303 308 310
72 326 53 104 341 101 164 105 153 149 120 93 122 96 66 102 91 182 193 167 152 158 161 145 134 124 105 106 129 126 122 120 116 105 74 117 149 165 190 198 202 164 37 68 92 4 338 306 282 286 296 306 277 298
81 8 50 35 346 85 65 42 64 90 91 138 161 107 91 99 190 248 129 194 137 169 150 143 144 135 136 122 98 83 75 69 83 104 105 82 64 41 124 177 207 107 105 84 79 60 29 18 353 321 303 291 272 265
90 29 109 343 58 26 105 66 57 78 132 14 87 74 121 156 161 188 354 48 122 101 86 67 59 90 104 110 118 112 89 94 94 99 99 81 61 56 64 70 61 72 85 71 100 126 76 41 339 323 303 305 306 283
41 360 79 42 44 44 39 73 97 47 354 88 109 125 134 65 349 320 77 101 120 114 108 104 70 88 84 78 61 69 113 123 109 96 96 267 321 214 47 64 67 53 32 24 295 225 244 243 249 274 294 289 307 298
23 30 93 69 66 36 291 168 302 301 11 79 95 96 65 43 15 14 79 76 115 115 110 113 130 125 132 125 122 91 53 17 141 144 169 220 216 142 142 85 55 45 18 11 2 338 353 26 6 305 323 314 311 310
12 67 73 63 88 290 244 324 323 99 44 44 21 85 99 109 83 40 46 51 106 115 116 107 93 95 125 133 135 130 108 46 85 122 115 109 117 119 110 88 66 41 17 18 11 354 327 322 328 319 318 316 314 312
36 87 122 108 165 268 44 53 57 63 10 36 18 48 32 60 64 20 16 53 106 111 105 131 130 149 164 114 105 66 72 117 124 119 122 114 106 102 92 78 61 27 12 4 352 338 331 326 318 321 317 317 318 317
68 66 56 96 79 59 278 89 36 76 35 60 33 72 81 118 138 174 38 29 121 147 139 119 105 104 113 112 112 108 94 103 105 100 100 107 110 110 91 66 38 11 353 343 336 326 324 317 315 319 319 318 316 315